Location: Huntsville
(41.2590°N, 111.7678°W)
Time: 17:07:37
(UTC+00:00)

Explorer 11/Cluster Stage 4 - Visible Passes

Search period start: 18 June 2021 00:00
Search period end: 28 June 2021 00:00
Orbit: 467 x 1257 km, 28.8° (Epoch: 17 June)

Date Brightness Start Highest point End Pass type
(mag) Time Alt. Az. Time Alt. Az. Time Alt. Az.
18 Jun 9.2 10:06:20 11° S 10:09:23 13° SSE 10:12:42 10° SE visible
19 Jun 9.1 09:55:31 13° S 09:58:02 15° SSE 10:02:12 10° ESE visible
20 Jun 8.9 09:44:42 16° S 09:46:39 17° SSE 09:51:28 10° ESE visible
21 Jun 8.8 09:33:51 18° S 09:35:15 19° SSE 09:40:34 10° ESE visible
21 Jun 8.4 11:16:41 10° SW 11:23:35 30° S 11:30:05 10° ESE visible
22 Jun 8.7 09:22:59 20° SSE 09:23:52 21° SSE 09:29:33 10° ESE visible
22 Jun 8.4 11:05:12 10° SW 11:12:13 31° S 11:18:55 10° ESE visible
23 Jun 8.6 09:12:08 22° SSE 09:12:28 23° SSE 09:18:27 10° ESE visible
23 Jun 8.3 10:54:13 12° SW 11:00:51 32° S 11:07:44 10° ESE visible
24 Jun 8.5 09:01:18 24° SSE 09:01:18 24° SSE 09:07:18 10° ESE visible
24 Jun 8.3 10:43:24 14° SW 10:49:29 33° S 10:56:29 10° ESE visible
25 Jun 8.5 08:50:30 25° SSE 08:50:30 25° SSE 08:56:04 10° ESE visible
25 Jun 8.2 10:32:36 16° SW 10:38:06 33° S 10:45:12 10° ESE visible
26 Jun 8.5 08:39:46 25° SSE 08:39:46 25° SSE 08:44:47 10° ESE visible
26 Jun 8.2 10:21:52 18° SW 10:26:43 33° S 10:33:51 10° ESE visible
27 Jun 8.6 08:29:07 24° SE 08:29:07 24° SE 08:33:28 10° ESE visible
27 Jun 8.2 10:11:13 21° SW 10:15:21 33° S 10:22:28 10° ESE visible
